{"data":{"norad_id":65783,"epoch":"2026-05-25T00:44:51.098208Z","epoch_age_seconds":72248,"freshness":"FRESH","line1":"1 65783U 25217X   26145.03114697  .00003256  00000+0  45599-3 0  9995","line2":"2 65783  51.8995  60.4986 0000795  99.3873 260.7179 14.79924222 36251","mean_motion":14.79924222,"eccentricity":7.95e-5,"inclination_deg":51.8995,"raan_deg":60.4986,"arg_perigee_deg":99.3873,"mean_anomaly_deg":260.7179,"bstar":0.00045599,"rev_number":3625,"period_min":97.302279305487,"perigee_km":629.00622710579,"apogee_km":630.12045145974,"semimajor_km":7007.7003392828,"source":"CELESTRAK","updated_at":"2026-05-25T13:38:05.690456Z"}}